FENGYUN 1C DEB, 35203

Orbit data source: Space-Track

FENGYUN 1C DEB, 35203 is space debris in SSO originally from a launch on Mon, 10 May 1999 UTC launched from the Taiyaun Space Center, China (TSC). Fengyun 1C debris stems from the Chinese weather satellite Fengyun-1C, which was intentionally destroyed by a Chinese anti-satellite missile in 2007. This event dramatically increased the amount of space debris, with thousands of trackable fragments posing hazards to satellites and human spaceflight. The Fengyun 1C debris cloud has become a focal point in discussions about space sustainability and the need for international regulations to prevent the creation of new debris.

Loading next visibility...
Identifier
35203, 1999-025DPK
Orbit
SSO
Country
Flag of CNCN / PRC
Related business
Manufacturer
Unknown
Mission
Spacecraft
Bus & Motor
Unknown
Mass
Unknown
Launch date (UTC)
1999-05-10 (27 years ago)
Launch vehicle
Unknown
Launch site
Taiyaun Space Center, China (TSC)
Object type
Payload
Rocket body
Debris
Shape & HBR
Unknown shape, 0.1 m
Radar Cross Section
Small (<0.1 m²)

Expand to show TLE details & history
Last TLE update: 1 day ago

TLE from 1 day ago
0 FENGYUN 1C DEB
1 35203U 99025DPK 26207.29569524  .00002325  00000-0  25551-2 0  9999
2 35203 102.0812 217.0852 0518153  27.1644 335.5598 13.27233441626429
Epoch: 2026-07-26T07:05Z
TLE epoch observation values (Epoch: 2026-07-26T07:05:48.068Z)
Latitude
-0.00002°
Longitude
166.63925°
Altitude
808.087 km
Speed
7.621 km/s
True Right ascension
14h 28m 20s
True Declination
0° 00' 00"
Sunlit
Object was in daylight at epoch
Visualization orbit readout
Latitude
Unknown
Longitude
Unknown
Altitude
Unknown
Speed
Unknown
Apparent Right ascension
Unknown
Apparent Declination
Unknown
Sunlit
N/A
Visualization observer readout
Local Sidereal Time
20:29:51
Azimuth
Unknown
Elevation
Unknown
Doppler factor
Unknown
Orbital elements
Apogee altitude
1,544.988 km
Perigee altitude
764.358 km
Semi-major axis
7,532.81 km
Eccentricity
0.05182
Inclination
102.0812°
RAAN
217.0852°
Arg. of periapsis
27.1644°
True anomaly
332.95055°
Mean anomaly
335.5598°
Eccentric anomaly
334.271°
Mean motion
3.31977 °/min
Orbital period
108.44 mins
BSTAR
0.0025551
Loading maneuver chart data...
Computing Atmospheric mass density...

Documentation

Showing up to 5 results
|